Flag for Switzerland Weather past 2 weeks in Geneva, Geneva, Switzerland

Now
81 °F

Sunny.


Feels Like: 81 °F
Forecast: 64 / 94 °F
Wind: 5 mph from Northeast

Location: Geneve-Cointrin

Current Time: Aug 5, 2015 at 3:34:54 PM

Latest Report: Aug 5, 2015 at 2:00 PM


Visibility: 31 mi

Pressure: 29.96 "Hg

Humidity: 50%

Dew point: 60 °F

Location of GenevaLocation

Historic Weather in Geneva — Graph

°F

Geneva temperature yesterday

Maximum temperature yesterday: 83 °F (at 5:00 PM)
Minimum temperature yesterday: 64 °F (at 5:00 AM)
Average temperature yesterday: 72 °F

Past Weeks' High & Low Weather Summary

 TemperatureHumidityPressure
High94 °F (Jul 21, 4:00 PM)94% (Jul 23, 3:00 AM)30.10 "Hg (Jul 23, 3:00 AM)
Low52 °F (Jul 30, 6:00 AM)27% (Jul 21, 7:00 PM)29.66 "Hg (Jul 24, 6:00 PM)
Average70 °F61%29.95 "Hg
* Reported Jul 21 2:00 PM — Aug 5 2:00 PM, Geneva, Weather by CustomWeather, © 2015

Note: Actual official high and low records may vary slightly from our data, if they occured in-between our weather recording intervals... More about our weather records

Advertising

Geneva weather history for previous 24 hours

 ConditionsComfort  
Time TempWeatherWind HumidityBarometerVisibility
2:00 PM
Wed, Aug 5
81 °FSunny.5 mph50%29.96 "Hg31 mi
1:00 PM79 °FWarm.7 mph51%29.98 "HgN/A
12:00 PM76 °FMild.6 mph57%30.01 "HgN/A
11:00 AM74 °FPassing clouds.8 mph61%30.03 "Hg34 mi
10:00 AM71 °FMild.6 mph63%30.04 "HgN/A
9:00 AM69 °FMild.3 mph68%30.05 "HgN/A
8:00 AM66 °FSunny.1 mph72%30.06 "Hg34 mi
7:00 AM60 °FCool.2 mph84%30.07 "HgN/A
4:00 AM61 °FCool.1 mph85%30.06 "HgN/A
3:00 AM62 °FCool.No wind83%30.06 "HgN/A
2:00 AM65 °FClear.2 mph74%30.07 "Hg31 mi
1:00 AM67 °FMild.2 mph78%30.07 "HgN/A
12:00 AM68 °FMild.3 mph75%30.07 "HgN/A
11:00 PM
Tue, Aug 4
71 °FPassing clouds.6 mph70%30.06 "Hg31 mi
10:00 PM73 °FMild.8 mph67%30.04 "HgN/A
9:00 PM74 °FMild.7 mph60%30.02 "HgN/A
8:00 PM77 °FPartly sunny.3 mph56%29.99 "Hg31 mi
7:00 PM80 °FWarm.3 mph50%29.98 "HgN/A
6:00 PM81 °FWarm.3 mph47%29.97 "HgN/A
5:00 PM83 °FScattered clouds.3 mph44%29.97 "Hg25 mi
4:00 PM81 °FWarm.5 mph51%29.98 "HgN/A
3:00 PM77 °FWarm.2 mph61%30.01 "HgN/A
Weather by CustomWeather, © 2015

See weather overviewHow to use our weather pages